STARLINK-31924, 59904

Orbit data source: Space-Track

STARLINK-31924, 59904 is a payload satellite owned by SpaceX/Seattle (US) in LEO that was launched on Tue, 28 May 2024 UTC via an FALCON 9 launch vehicle from the Air Force Eastern Test Range (AFETR). Payload-class satellites include a variety of spacecraft equipped with specific instruments for various scientific and technological missions. These include communications satellites like Starlink; space stations such as the ISS; scientific satellites like the Hubble; Earth observation satellites from companies like Planet Labs, Umbra, and HawkEye 360; GPS; miniature CubeSats for education and research; and military/defense satellites.

Loading next visibility...
Identifier
59904, 2024-100V
Orbit
LEO
Last TLE update
12 hours ago
Origin
Manufacturer
SpaceX/Seattle
Mission
Operational spacecraft
Bus & Motor
STARLINK V2M, Unknown motor
Mass
730 kg wet, ~700 kg dry
Launch date (UTC)
2024-05-28 (1 year ago)
Launch vehicle
FALCON 9
Launch site
Air Force Eastern Test Range (AFETR)
Object type
Payload
Rocket body
Debris
Shape & HBR
Unknown
Radar Cross Section
Large (>1 m²)

Expand to show TLE details & history

TLE from 12 hours ago
0 STARLINK-31924
1 59904U 24100V   25191.99236160  .00001149  00000-0  51295-4 0  9999
2 59904  43.0044  50.2666 0002037 258.1477 101.9147 15.27582320 64081
Epoch: 2025-07-10T23:49Z
TLE epoch observation values (Epoch: 2025-07-10T23:49:00.042Z)
Latitude
0.00004°
Longitude
123.86578°
Altitude
483.107 km
Speed
7.626 km/s
True Right ascension
03h 21m 03s
True Declination
0° 00' 00"
Sunlit
Object was in daylight at epoch
Visualization orbit readout
Latitude
-8.22274°
Longitude
-50.0533°
Altitude
483.754 km
Speed
7.625 km/s
Apparent Right ascension
14h 11m 04s
Apparent Declination
-26° 05' 55"
Sunlit
Object is in full shadow
Visualization observer readout
Local Sidereal Time
23:56:21
Azimuth
285.925° WNW
Elevation
-58.809°
Doppler factor
1
Orbital elements
Apogee altitude
486.385 km
Perigee altitude
483.589 km
Semi-major axis
6,863.124 km
Eccentricity
0.0002
Inclination
43.0044°
RAAN
50.2666°
Arg. of periapsis
258.1477°
True anomaly
Unknown
Mean anomaly
101.9147°
Eccentric anomaly
Unknown
Mean motion
3.81734 °/min
Orbital period
94.31 mins
BSTAR
0.000051295
Loading maneuver chart data...
Loading SW <> Apogee altitude chart data...
Loading historical data...
Loading historical data...
Loading historical data...
Loading historical data...
Loading historical data...
Loading historical data...
Loading historical data...

STARLINK-31924 Visibility forecast

Observer location: undefined°, undefined°

Span
Click to sort rows by Start time (UTC) header in descending order
Start Az.
Max El. time (UTC)
Max El. Az.
Max El.
End time (UTC)
End Az.
5 mins2025-07-11 17:16:17.109Z189.637° SSW2025-07-11 17:18:17.109Z150.583° SSE20.827°2025-07-11 17:21:17.109Z94.601° ESE
5 mins2025-07-11 18:55:17.109Z250.647° W2025-07-11 18:57:17.109Z74.796° E44.714°2025-07-11 19:00:17.109Z71.95° E
5 mins2025-07-11 20:34:17.109Z292.151° WNW2025-07-11 20:36:17.109Z0.318° NNE38.023°2025-07-11 20:39:17.109Z73.691° E
5 mins2025-07-11 22:13:17.109Z290.82° WNW2025-07-11 22:15:17.109Z334.946° NNW44.442°2025-07-11 22:18:17.109Z104.045° ESE
5 mins2025-07-11 23:52:17.109Z256.258° W2025-07-11 23:54:17.109Z208.707° SW24.061°2025-07-11 23:57:17.109Z154.786° SSE
|